User: anonymous   Login
Location: Chinna Viriv?da
(16.5281°N, 81.0493°E)
Time: 14:43:20
(UTC+00:00)
Language:

ATLAS 5 CENTAUR R/B - Orbit

View from above orbital plane
View from above orbital plane
View from above satellite
View from above satellite

Ground track
Ground track

The orbit is defined by the following mean orbital elements,

1 36869U          26160.07523528 +.00000000 +00000-0 +84002-3 0 00009
2 36869  20.1592  37.6175 4451663 180.7708 178.2618  6.62658089    05
Epoch (UTC): 09 June 2026 01:48:20
Eccentricity: 0.4451663
inclination: 20.1592°
perigee height: 265 km
apogee height: 10925 km
right ascension of ascending node: 37.6175°
argument of perigee: 180.7708°
revolutions per day: 6.62658089
mean anomaly at epoch: 178.2618°

The dashed part of the orbit path shows where the satellite is in the earth's shadow,  

DLR